• MPC Preparation (Info)

  • MPEC 2014-V13 : 2014 UL192

    The following Minor Planet Electronic Circular may be linked-to from your own Web pages, but must not otherwise be redistributed electronically.

    A form allowing access to any MPEC is at the bottom of this page.


    Read MPEC 2014-V12 Read MPEC 2014-V14


    M.P.E.C. 2014-V13                                Issued 2014 Nov. 2, 14:17 UT
    
         The Minor Planet Electronic Circulars contain information on unusual
             minor planets and routine data on comets.  They are published
       on behalf of Commission 20 of the International Astronomical Union by the
              Minor Planet Center, Smithsonian Astrophysical Observatory,
                              Cambridge, MA 02138, U.S.A.
    
                 Prepared using the Tamkin Foundation Computer Network
    
                                  MPC@CFA.HARVARD.EDU
                URL https://www.minorplanetcenter.net/    ISSN 1523-6714
    
                                      2014 UL192
    
    Observations:
         K14UJ2L* C2014 10 31.20475 02 18 39.31 +12 35 52.7          21.4 VqEV013G96
         K14UJ2L  C2014 10 31.20932 02 18 39.24 +12 36 12.1          20.7 VqEV013G96
         K14UJ2L  C2014 10 31.21390 02 18 39.17 +12 36 32.3          20.8 VqEV013G96
         K14UJ2L  C2014 10 31.21850 02 18 39.10 +12 36 50.6          21.9 VqEV013G96
         K14UJ2L  C2014 10 31.30969 02 18 37.83 +12 43 16.9          20.3 VqEV013G96
         K14UJ2L  C2014 10 31.31027 02 18 37.85 +12 43 19.6          20.6 VqEV013G96
         K14UJ2L  C2014 10 31.31177 02 18 37.81 +12 43 25.9          20.6 VqEV013G96
         K14UJ2L  C2014 10 31.31235 02 18 37.81 +12 43 28.1          20.5 VqEV013G96
         K14UJ2L  C2014 10 31.31384 02 18 37.81 +12 43 33.9          20.5 VqEV013G96
         K14UJ2L  C2014 10 31.31442 02 18 37.76 +12 43 36.8          20.4 VqEV013G96
         K14UJ2L  C2014 10 31.31592 02 18 37.76 +12 43 43.1          20.1 VqEV013G96
         K14UJ2L  C2014 10 31.31650 02 18 37.77 +12 43 45.5          20.4 VqEV013G96
         K14UJ2L  C2014 10 31.32067 02 18 37.73 +12 44 03.2          20.6 VqEV013G96
         K14UJ2L  C2014 10 31.32117 02 18 37.66 +12 44 05.3          21.0 VqEV013G96
         K14UJ2L  C2014 10 31.32167 02 18 37.70 +12 44 07.2          20.1 VqEV013G96
         K14UJ2L  C2014 10 31.32217 02 18 37.65 +12 44 10.1          20.6 VqEV013G96
         K14UJ2L  C2014 10 31.40791 02 18 36.70 +12 50 07.8          20.7 VqEV013G96
         K14UJ2L  C2014 10 31.40876 02 18 36.68 +12 50 11.4          20.2 VqEV013G96
         K14UJ2L  C2014 10 31.40961 02 18 36.63 +12 50 13.9          19.8 VqEV013G96
         K14UJ2L  C2014 10 31.41045 02 18 36.64 +12 50 17.7          19.4 VqEV013G96
         K14UJ2L KC2014 11 01.28594 02 18 58.64 +13 52 47.3          20.9 RoEV013291
         K14UJ2L KC2014 11 01.28749 02 18 58.62 +13 52 54.2          20.7 RoEV013291
         K14UJ2L KC2014 11 01.28905 02 18 58.59 +13 53 00.9          20.2 RoEV013291
         K14UJ2L KC2014 11 02.24785802 19 18.52 +15 02 47.2          21.0 VuEV013H21
         K14UJ2L KC2014 11 02.25258902 19 18.43 +15 03 08.2          20.8 VuEV013H21
         K14UJ2L KC2014 11 02.25701602 19 18.43 +15 03 27.6          20.8 VuEV013H21
    
    Observer details:
    291 LPL/Spacewatch II.  Observer R. A. Mastaler.  1.8-m f/2.7 reflector + CCD.
    G96 Mt. Lemmon Survey.  Observer A. R. Gibbs.  Measurers E. J. Christensen,
        A. R. Gibbs, A. D. Grauer, R. E. Hill, J. A. Johnson, R. A. Kowalski,
        S. M. Larson, F. C. Shelly.  1.5-m reflector + CCD.
    H21 Astronomical Research Observatory, Westfield.  Observer R. Holmes.
        Measurers T. Vorobjov, L. Buzzi, S. Foglia, T. Linder.  0.81-m f/4.0
        astrograph + CCD.
    
    Orbital elements:
    2014 UL192                                               Earth MOID = 0.0823 AU
    Epoch 2014 Dec. 9.0 TT = JDT 2457000.5                  MPC
    M   7.84901              (2000.0)            P               Q
    n   0.60701016     Peri.   24.39182     +0.45786636     -0.88703186
    a   1.3814614      Node    38.43444     +0.79914849     +0.38136617
    e   0.2293583      Incl.    5.48690     +0.38951262     +0.26025819
    P   1.62           H   25.5           G   0.15           U   7
    Residuals in seconds of arc
    141031 G96  0.5+  0.0     141031 G96  0.3-  0.1-    141031 G96  0.6-  0.3-
    141031 G96  0.1+  0.1-    141031 G96  0.1+  0.1-    141031 G96  0.3-  0.0
    141031 G96  0.2-  0.6+    141031 G96  0.3+  0.2-    141101 291  0.1-  0.1-
    141031 G96  0.5-  0.7-    141031 G96  0.7+  0.0     141101 291  0.1-  0.1+
    141031 G96  0.3-  0.2-    141031 G96  0.2-  0.0     141101 291  0.2-  0.0
    141031 G96  0.2+  0.1+    141031 G96  0.4+  0.2-    141102 H21  0.3+  0.0
    141031 G96  0.1-  0.1+    141031 G96  0.2-  0.6+    141102 H21  0.3-  0.1+
    141031 G96  0.0   0.1-    141031 G96  0.3+  0.6+    141102 H21  0.4+  0.0
    141031 G96  0.4+  0.6-    141031 G96  0.1+  0.7+
    
    Ephemeris:
    2014 UL192               a,e,i = 1.38, 0.23, 5                   q = 1.0646
    Date    TT    R. A. (2000) Decl.     Delta      r     Elong.  Phase     V
    2014 10 03    02 06 27.4 -06 49 22   0.1562  1.1441   154.8    21.8    22.8
    ...
    2014 10 18    02 14 32.0 +00 19 34   0.1146  1.1079   165.7    12.9    21.8
    ...
    2014 10 26    02 17 02.9 +07 00 16   0.09882 1.0925   173.3     6.1    21.1
    ...
    2014 11 01    02 18 52.4 +13 32 42   0.09033 1.0830   178.6     1.2    20.6
    2014 11 02    02 19 13.7 +14 45 10   0.08921 1.0816   178.0     1.9    20.6
    2014 11 03    02 19 36.4 +15 59 24   0.08818 1.0802   176.9     2.8    20.7
    ...
    2014 11 09    02 22 31.6 +23 53 36   0.08387 1.0732   169.5     9.7    20.9
    ...
    2014 11 17    02 28 57.9 +34 47 24   0.08312 1.0670   159.4    19.0    21.2
    ...
    2014 12 02    02 55 28.3 +51 03 28   0.09516 1.0657   145.4    31.7    21.9
    
    A. U. Tomatic                (C) Copyright 2014 MPC           M.P.E.C. 2014-V13
    

    Read MPEC 2014-V12 Read MPEC 2014-V14


    MPEC number:

    Enter an MPEC number in one of the following forms:

    • 1997-B01 (the full form)
    • J97B01 (the packed version of the full form)
    • B01 (the abbreviated form)